This demonstration page uses our WeatherBlox Daily Observations layout. Learn more.

38.88101, -77.10428

Hourly Observations for March 6, 2020

Temp ( °F °C ) Dew Point ( °F °C ) Humidity (%) Winds ( mph kmh ) Pressure ( in mb ) Visibility ( mi km ) Precip ( " mm )
12:52 am 00:52 Clear 41 5 32 0 70 70 ESE 5 7 30.01 1016 10 16.0934 0 0
1:52 am 01:52 Clear 40 4.4 30 -1.1 68 68 SE 5 7 29.98 1015 10 16.0934 0 0
2:52 am 02:52 Mostly Cloudy 39 3.9 32 0 76 76 SSE 5 7 29.94 1014 10 16.0934 0 0
3:52 am 03:52 Mostly Cloudy 41 5 34 1.1 76 76 SSE 10 17 29.88 1012 10 16.0934 0 0
4:52 am 04:52 Mostly Clear 40 4.4 31 -0.6 70 70 Calm 29.87 1012 10 16.0934 0 0
5:52 am 05:52 Mostly Clear 40 4.4 32 0 73 73 Calm 29.88 1012 10 16.0934 0 0
6:52 am 06:52 Cloudy 39 3.9 33 0.6 79 79 N 7 11 29.89 1012 10 16.0934 0 0
7:52 am 07:52 Mostly Cloudy 40 4.4 34 1.1 79 79 NE 7 11 29.87 1012 10 16.0934 0 0
8:52 am 08:52 Cloudy 42 5.6 34 1.1 73 73 NE 5 7 29.86 1011 10 16.0934 0 0
9:52 am 09:52 Cloudy 44 6.7 34 1.1 68 68 NE 3 6 29.85 1011 10 16.0934 0 0
10:52 am 10:52 Cloudy 44 6.7 35 1.7 71 71 NNE 6 9 29.84 1011 10 16.0934 0 0
11:52 am 11:52 Cloudy 46 7.8 34 1.1 63 63 N 10 17 29.85 1011 10 16.0934 0 0
12:52 pm 12:52 Mostly Cloudy 49 9.4 36 2.2 61 61 N 12 19 29.83 1010 10 16.0934 0.001 0.001
1:52 pm 13:52 Mostly Cloudy 52 11.1 34 1.1 50 50 NNW 15 24 29.8 1009 10 16.0934 0 0
2:52 pm 14:52 Mostly Cloudy 51 10.6 33 0.6 50 50 N 10 17 29.8 1009 10 16.0934 0 0
3:52 pm 15:52 Cloudy 51 10.6 32 0 48 48 WNW 17 28 29.81 1010 10 16.0934 0 0
4:52 pm 16:52 Mostly Cloudy 48 8.9 37 2.8 66 66 NW 7 11 29.84 1011 10 16.0934 0 0
5:52 pm 17:52 Mostly Cloudy 48 8.9 31 -0.6 52 52 NW 15 24 29.86 1011 10 16.0934 0 0
6:52 pm 18:52 Mostly Cloudy 47 8.3 31 -0.6 54 54 NW 13 20 29.9 1012 10 16.0934 0 0
7:52 pm 19:52 Mostly Cloudy 46 7.8 31 -0.6 56 56 NW 14 22 29.92 1013 10 16.0934 0 0
8:52 pm 20:52 Mostly Cloudy 45 7.2 30 -1.1 56 56 NW 15 24 29.94 1014 10 16.0934 0 0
9:52 pm 21:52 Mostly Cloudy 45 7.2 30 -1.1 56 56 NW 17 28 29.96 1015 10 16.0934 0 0
10:52 pm 22:52 Cloudy 45 7.2 30 -1.1 56 56 NW 16 26 29.98 1015 10 16.0934 0 0
11:52 pm 23:52 Cloudy with Light Rain 44 6.7 29 -1.7 55 55 NW 18 30 30.01 1016 10 16.0934 0.001 0.001

Powered by AerisWeather